Home > Weather > Buenaventura > Past weeks

Flag for Colombia Weather for the Past 2 Weeks in Buenaventura, Colombia

Now
68 °F

Broken clouds.


Feels Like: 68 °F
Forecast: 76 / 89 °F
Wind: 3 mph from North

Location: Cali / Alfonso Bonillaaragon

Current Time: May 2, 2016 at 8:34:02 AM

Latest Report: May 2, 2016 at 8:00 AM


Visibility: N/A

Pressure: 30.09 "Hg

Humidity: 100%

Dew Point: 68 °F

Location of BuenaventuraLocation

Historic Weather in Buenaventura — Graph

°F

Buenaventura Temperature Yesterday

Maximum temperature yesterday: 79 °F (at 1:00 PM)
Minimum temperature yesterday: 66 °F (at 12:00 AM)
Average temperature yesterday: 72 °F

High & Low Weather Summary for the Past Weeks

 TemperatureHumidityPressure
High91 °F (Apr 21, 3:00 PM)100% (Apr 19, 3:00 AM)30.09 "Hg (Apr 19, 3:00 AM)
Low66 °F (Apr 30, 9:00 PM)46% (Apr 21, 3:00 PM)29.79 "Hg (Apr 21, 5:00 PM)
Average75 °F82%29.97 "Hg
* Reported Apr 17 7:00 AM — May 2 7:00 AM, Buenaventura, Weather by CustomWeather, © 2016

Note: Actual official high and low records may vary slightly from our data, if they occured in-between our weather recording intervals... More about our weather records

Advertising

Buenaventura Weather History for the Previous 24 Hours

Scroll right to see more
 ConditionsComfort  
Time TempWeatherWind HumidityBarometerVisibility
7:00 AM
Mon, May 2
66 °FScattered showers. Partly sunny.3 mph100%30.08 "Hg3 mi
6:00 AM66 °FDrizzle. Mostly cloudy.3 mph100%30.07 "Hg2 mi
5:00 AM66 °FThunderstorms. Mostly cloudy.3 mph94%30.05 "Hg3 mi
4:02 AM66 °FRain. Mostly cloudy.7 mph94%30.03 "Hg1 mi
4:00 AM68 °FDrizzle. Mostly cloudy.7 mph94%30.02 "Hg5 mi
3:00 AM70 °FDrizzle. Mostly cloudy.No wind94%30.00 "Hg6 mi
2:00 AM70 °FDrizzle. Mostly cloudy.3 mph94%30.01 "HgN/A
1:00 AM70 °FOvercast.6 mph94%30.01 "HgN/A
12:00 AM70 °FOvercast.3 mph94%30.03 "HgN/A
11:00 PM
Sun, May 1
70 °FScattered showers. Overcast.3 mph94%30.04 "HgN/A
10:00 PM72 °FOvercast.3 mph94%30.03 "Hg6 mi
9:00 PM72 °FDrizzle. Overcast.2 mph94%30.01 "HgN/A
8:00 PM72 °FPassing clouds.5 mph88%29.99 "HgN/A
7:00 PM73 °FPassing clouds.5 mph83%29.97 "Hg6 mi
6:00 PM75 °FScattered clouds.2 mph83%29.95 "Hg6 mi
5:00 PM77 °FBroken clouds.5 mph79%29.92 "HgN/A
4:00 PM79 °FBroken clouds.3 mph70%29.92 "HgN/A
3:00 PM79 °FBroken clouds.No wind70%29.93 "Hg6 mi
2:00 PM79 °FDrizzle. Broken clouds.2 mph70%29.97 "Hg4 mi
1:00 PM79 °FDrizzle. Broken clouds.3 mph89%30.00 "Hg4 mi
12:00 PM77 °FBroken clouds.2 mph74%30.03 "Hg4 mi
11:00 AM75 °FDrizzle. Partly sunny.2 mph78%30.04 "Hg3 mi
10:00 AM72 °FPartly sunny.2 mph88%30.05 "Hg2 mi
9:00 AM70 °FFog.2 mph94%30.05 "Hg2 mi
8:00 AM70 °FFog.2 mph94%30.04 "Hg2 mi
Weather by CustomWeather, © 2016

See weather overviewHow to use our weather pages